period_start,C,m1,H,J0,J1,J2,J3,J4,J5,JA,JB,JC,JD,JJ,JK,JN,#
2018-08-20 00:02:32,0.80,1.85,1.00,24.40,28.10,31.01,13.81,48.27,1013.20,2022.03,2664.43,2640.08,2944.65,599.97,591.18,4.20,0000 0000 0000 0000 000000
2018-08-20 00:07:33,0.80,1.89,1.00,24.40,28.10,31.03,13.88,48.30,1013.20,2022.02,2650.01,2631.54,2934.04,600.31,591.50,4.25,0000 0000 0000 0000 000000
2018-08-20 00:12:35,0.78,1.93,1.00,24.40,28.09,31.01,13.84,48.46,1013.20,2022.02,2635.93,2623.21,2923.52,599.72,591.01,4.30,0000 0000 0000 0000 000000
2018-08-20 00:17:36,0.77,1.97,1.00,24.40,28.08,31.02,13.90,48.48,1013.20,2022.03,2622.31,2615.09,2913.23,600.05,591.30,4.35,0000 0000 0000 0000 000000
2018-08-20 00:22:37,0.67,2.01,1.00,24.39,28.07,31.02,13.84,48.47,1013.20,2022.02,2610.20,2607.63,2903.98,599.73,591.02,4.40,0000 0000 0000 0000 000000
2018-08-20 00:27:38,0.63,2.04,1.00,24.38,28.07,31.03,13.88,48.41,1013.19,2022.02,2599.27,2600.97,2895.76,599.82,591.11,4.45,0000 0000 0000 0000 000000
2018-08-20 00:32:40,0.60,2.07,1.00,24.37,28.07,31.03,13.91,48.48,1013.17,2022.01,2588.73,2594.54,2887.82,600.14,591.43,4.50,0000 0000 0000 0000 000000
2018-08-20 00:37:41,0.59,2.10,1.00,24.37,28.07,31.04,13.86,48.58,1013.11,2022.02,2578.62,2588.29,2880.21,600.10,591.33,4.55,0000 0000 0000 0000 000000
2018-08-20 00:42:42,0.59,2.13,1.00,24.37,28.07,31.05,13.83,48.71,1013.04,2022.02,2568.56,2582.14,2872.80,600.01,591.17,4.60,0000 0000 0000 0000 000000
2018-08-20 00:47:44,0.64,2.16,1.00,24.37,28.07,31.02,13.81,48.83,1013.02,2022.03,2558.10,2575.63,2864.83,599.63,590.93,4.65,0000 0000 0000 0000 000000
2018-08-20 00:52:45,0.66,2.20,1.00,24.37,28.07,31.00,13.90,48.56,1013.04,2022.05,2547.14,2568.88,2856.50,599.99,591.13,4.70,0000 0000 0000 0000 000000
2018-08-20 00:57:46,0.64,2.23,1.00,24.37,28.05,31.00,13.90,48.63,1012.89,2022.07,2536.53,2562.23,2848.35,600.20,591.34,4.75,0000 0000 0000 0000 000000
2018-08-20 01:02:48,0.58,2.26,1.00,24.36,28.05,31.01,13.85,48.74,1012.74,2022.08,2526.63,2556.30,2840.84,599.87,590.94,4.80,0000 0000 0000 0000 000000
2018-08-20 01:07:49,0.60,2.29,1.00,24.36,28.05,31.01,13.88,48.75,1012.73,2022.10,2516.82,2550.23,2833.49,600.08,591.19,4.85,0000 0000 0000 0000 000000
2018-08-20 01:12:50,0.60,2.32,1.00,24.35,28.05,30.96,13.86,48.70,1012.72,2022.14,2507.04,2544.08,2826.06,599.90,591.06,4.90,0000 0000 0000 0000 000000
2018-08-20 01:17:52,0.59,2.35,1.00,24.35,28.05,31.00,13.88,48.77,1012.72,2022.10,2497.35,2538.01,2818.69,599.98,591.06,4.95,0000 0000 0000 0000 000000
2018-08-20 01:22:53,0.59,2.38,1.00,24.35,28.05,30.99,13.94,48.76,1012.72,2022.24,2488.00,2532.14,2811.73,600.32,591.39,5.00,0000 0000 0000 0000 000000
2018-08-20 01:27:54,0.62,2.41,1.00,24.36,28.05,31.00,13.78,48.83,1012.71,2022.37,2478.63,2526.29,2804.73,599.88,590.85,5.05,0000 0000 0000 0000 000000
2018-08-20 01:32:55,0.54,2.44,1.00,24.35,28.05,30.99,13.83,48.84,1012.71,2022.42,2469.50,2520.28,2797.66,600.15,591.21,5.10,0000 0000 0000 0000 000000
2018-08-20 01:37:57,0.60,2.47,1.00,24.35,28.04,30.95,13.94,48.95,1012.71,2022.39,2460.22,2514.46,2790.70,600.13,591.19,5.15,0000 0000 0000 0000 000000
2018-08-20 01:42:58,0.56,2.50,1.00,24.34,28.04,30.99,13.79,48.90,1012.71,2022.34,2451.01,2508.59,2783.70,599.75,590.85,5.20,0000 0000 0000 0000 000000
2018-08-20 01:47:59,0.53,2.53,1.00,24.34,28.04,30.96,13.82,48.93,1012.67,2022.15,2442.24,2503.05,2776.98,599.70,590.78,5.25,0000 0000 0000 0000 000000
2018-08-20 01:53:00,0.52,2.55,1.00,24.33,28.04,30.99,13.89,49.02,1012.59,2022.04,2433.79,2498.03,2770.81,600.30,591.31,5.30,0000 0000 0000 0000 000000
2018-08-20 01:58:02,0.49,2.58,1.00,24.33,28.04,30.98,13.90,49.00,1012.38,2022.00,2425.51,2493.21,2764.75,600.03,590.80,5.35,0000 0000 0000 0000 000000
2018-08-20 02:03:03,0.49,2.60,1.00,24.34,28.03,31.00,13.83,48.94,1012.27,2022.01,2417.65,2488.58,2759.08,600.23,591.03,5.40,0000 0000 0000 0000 000000
2018-08-20 02:08:04,0.44,2.63,1.00,24.35,28.03,31.00,13.78,49.18,1012.24,2022.01,2410.42,2484.27,2753.86,599.94,590.76,5.45,0000 0000 0000 0000 000000
2018-08-20 02:13:06,0.45,2.65,1.00,24.34,28.02,31.00,13.92,49.08,1012.22,2022.02,2403.18,2480.03,2748.90,600.01,590.81,5.50,0000 0000 0000 0000 000000
2018-08-20 02:18:07,0.52,2.67,1.00,24.33,28.02,30.98,13.87,49.16,1012.22,2022.00,2395.13,2475.22,2743.13,600.24,591.02,5.55,0000 0000 0000 0000 000000
2018-08-20 02:23:08,0.50,2.70,1.00,24.33,28.02,30.96,13.86,49.13,1012.22,2022.01,2387.16,2470.56,2737.36,599.76,590.51,5.60,0000 0000 0000 0000 000000
2018-08-20 02:28:09,0.42,2.72,0.83,24.32,28.02,30.97,13.89,49.23,1012.22,2022.00,2380.17,2466.40,2732.34,600.07,590.83,5.65,0000 0000 0000 0000 000000
2018-08-20 02:33:11,0.40,2.74,0.00,24.34,28.02,30.96,13.82,49.15,1012.21,2022.00,2373.84,2462.71,2727.88,599.93,590.70,5.70,0000 0000 0000 0000 000000
2018-08-20 02:38:12,0.41,2.76,0.00,24.34,28.02,30.95,13.90,49.12,1012.18,2022.02,2367.49,2458.93,2723.32,600.09,590.84,5.75,0000 0000 0000 0000 000000
2018-08-20 02:43:13,0.46,2.79,0.00,24.34,28.02,30.96,13.85,49.23,1012.15,2022.00,2360.41,2454.71,2718.19,600.01,590.77,5.80,0000 0000 0000 0000 000000
2018-08-20 02:48:15,0.47,2.81,0.00,24.34,28.02,30.95,13.85,49.13,1012.15,2022.01,2353.04,2450.41,2712.92,599.82,590.59,5.85,0000 0000 0000 0000 000000
2018-08-20 02:53:16,0.48,2.84,0.00,24.35,28.02,30.96,13.86,49.28,1011.96,2022.00,2345.52,2446.01,2707.54,599.98,590.60,5.90,0000 0000 0000 0000 000000
2018-08-20 02:58:17,0.51,2.86,0.00,24.35,28.02,30.96,13.84,49.34,1011.89,2022.00,2337.71,2441.56,2702.09,599.93,590.58,5.95,0000 0000 0000 0000 000000
2018-08-20 03:03:19,0.58,2.89,0.00,24.35,28.02,30.96,13.83,49.42,1011.83,2022.01,2328.75,2436.52,2695.86,599.89,590.55,6.00,0000 0000 0000 0000 000000
2018-08-20 03:08:20,0.56,2.92,0.00,24.35,28.02,30.95,13.87,49.42,1011.76,2022.00,2319.75,2431.44,2689.49,599.93,590.44,6.05,0000 0000 0000 0000 000000
2018-08-20 03:13:21,0.57,2.95,0.00,24.35,28.02,30.94,13.83,49.48,1011.75,2022.00,2311.00,2426.41,2683.33,600.01,590.56,6.10,0000 0000 0000 0000 000000
2018-08-20 03:18:22,0.54,2.97,0.00,24.35,28.02,30.95,13.95,49.45,1011.76,2022.00,2302.72,2421.49,2677.31,600.14,590.75,6.15,0000 0000 0000 0000 000000
2018-08-20 03:23:23,0.54,3.00,0.00,24.35,28.02,30.95,13.90,49.59,1011.75,2022.00,2294.46,2416.63,2671.41,600.24,590.82,6.20,0000 0000 0000 0000 000000
2018-08-20 03:28:24,0.54,3.03,0.20,24.36,28.02,30.94,13.86,49.55,1011.75,2022.00,2286.24,2411.82,2665.50,600.18,590.60,6.25,0000 0000 0000 0000 000000
2018-08-20 03:33:26,0.53,3.06,1.00,24.35,28.02,30.93,13.83,49.52,1011.74,2022.00,2278.01,2407.15,2659.74,600.17,590.66,6.31,0000 0000 0000 0000 000000
2018-08-20 03:38:27,0.53,3.08,1.00,24.35,28.02,30.93,13.85,49.72,1011.75,2022.00,2270.04,2402.60,2654.10,600.18,590.70,6.36,0000 0000 0000 0000 000000
2018-08-20 03:43:28,0.54,3.11,1.00,24.35,28.02,30.94,13.88,49.81,1011.75,2022.00,2261.86,2397.96,2648.38,599.89,590.47,6.41,0000 0000 0000 0000 000000
2018-08-20 03:48:30,0.56,3.14,1.00,24.36,28.02,30.95,13.88,49.78,1011.75,2022.00,2253.54,2393.19,2642.50,600.08,590.55,6.46,0000 0000 0000 0000 000000
2018-08-20 03:53:31,0.55,3.17,1.00,24.35,28.02,30.95,13.83,49.77,1011.73,2022.00,2245.32,2388.40,2636.62,599.84,590.33,6.51,0000 0000 0000 0000 000000
2018-08-20 03:58:32,0.54,3.19,1.00,24.35,28.02,30.96,13.87,49.84,1011.73,2022.00,2237.28,2383.74,2630.81,600.21,590.77,6.56,0000 0000 0000 0000 000000
2018-08-20 04:03:34,0.56,3.22,1.00,24.35,28.02,30.95,13.88,49.92,1011.73,2022.00,2228.99,2379.01,2625.06,600.04,590.51,6.61,0000 0000 0000 0000 000000
2018-08-20 04:08:35,0.55,3.25,1.00,24.37,28.02,30.91,13.97,50.08,1011.73,2022.00,2220.93,2374.20,2619.38,600.03,590.54,6.66,0000 0000 0000 0000 000000
2018-08-20 04:13:36,0.55,3.28,1.00,24.36,28.02,30.94,13.91,49.88,1011.73,2022.00,2212.95,2369.45,2613.60,600.12,590.50,6.71,0000 0000 0000 0000 000000
2018-08-20 04:18:37,0.54,3.30,1.00,24.36,28.02,30.96,13.88,49.98,1011.73,2022.00,2205.17,2364.88,2607.96,599.98,590.51,6.76,0000 0000 0000 0000 000000
2018-08-20 04:23:38,0.55,3.33,1.00,24.35,28.02,30.96,13.85,50.14,1011.70,2022.00,2197.46,2360.22,2602.33,600.00,590.49,6.81,0000 0000 0000 0000 000000
2018-08-20 04:28:39,0.54,3.36,1.00,24.36,28.02,30.95,13.83,50.18,1011.69,2022.00,2189.98,2355.51,2596.71,599.82,590.39,6.86,0000 0000 0000 0000 000000
2018-08-20 04:33:41,0.53,3.39,1.00,24.36,28.02,30.94,13.89,50.17,1011.66,2022.00,2182.64,2350.94,2591.32,600.12,590.54,6.91,0000 0000 0000 0000 000000
2018-08-20 04:38:42,0.52,3.41,1.00,24.37,28.03,30.98,13.85,50.23,1011.55,2022.00,2175.43,2346.44,2585.98,600.01,590.27,6.96,0000 0000 0000 0000 000000
2018-08-20 04:43:43,0.53,3.44,1.00,24.37,28.05,30.97,13.91,50.15,1011.46,2022.00,2168.28,2341.90,2580.58,600.09,590.33,7.01,0000 0000 0000 0000 000000
2018-08-20 04:48:44,0.51,3.47,1.00,24.37,28.05,30.97,13.83,50.12,1011.39,2022.00,2161.23,2337.48,2575.27,599.91,590.11,7.06,0000 0000 0000 0000 000000
2018-08-20 04:53:45,0.49,3.49,1.00,24.38,28.05,30.96,13.84,50.16,1011.42,2022.00,2154.31,2333.22,2570.23,600.14,590.37,7.11,0000 0000 0000 0000 000000
2018-08-20 04:58:47,0.51,3.52,1.00,24.40,28.05,30.98,13.85,50.23,1011.35,2022.00,2147.36,2329.05,2565.24,599.89,590.07,7.16,0000 0000 0000 0000 000000
2018-08-20 05:03:48,0.51,3.54,1.00,24.40,28.05,30.97,13.88,50.31,1011.32,2021.99,2140.36,2324.74,2560.23,600.20,590.25,7.21,0000 0000 0000 0000 000000
2018-08-20 05:08:49,0.51,3.57,1.00,24.40,28.06,30.99,13.90,50.28,1011.32,2021.99,2133.41,2320.40,2555.21,600.02,590.24,7.26,0000 0000 0000 0000 000000
2018-08-20 05:13:51,0.52,3.59,1.00,24.40,28.07,30.98,13.89,50.32,1011.28,2021.98,2126.32,2316.13,2550.08,599.99,590.18,7.31,0000 0000 0000 0000 000000
2018-08-20 05:18:52,0.54,3.62,1.00,24.40,28.07,31.01,13.82,50.38,1011.28,2021.99,2119.02,2311.70,2544.81,600.26,590.32,7.36,0000 0000 0000 0000 000000
2018-08-20 05:23:53,0.55,3.65,1.00,24.40,28.07,30.99,13.88,50.42,1011.27,2021.98,2111.61,2307.20,2539.40,600.29,590.33,7.41,0000 0000 0000 0000 000000
2018-08-20 05:28:54,0.56,3.68,1.00,24.41,28.07,30.99,13.83,50.40,1011.28,2021.98,2104.08,2302.81,2533.96,600.21,590.17,7.46,0000 0000 0000 0000 000000
2018-08-20 05:33:55,0.56,3.71,1.00,24.41,28.09,31.00,13.84,50.53,1011.26,2021.98,2096.47,2298.50,2528.60,600.09,590.18,7.51,0000 0000 0000 0000 000000
2018-08-20 05:38:57,0.57,3.73,1.00,24.41,28.10,31.01,13.85,50.72,1011.25,2021.97,2088.83,2294.00,2523.06,599.69,589.77,7.56,0000 0000 0000 0000 000000
2018-08-20 05:43:58,0.58,3.76,1.00,24.42,28.10,31.02,13.79,50.68,1011.25,2021.94,2080.91,2289.50,2517.53,599.59,589.66,7.61,0000 0000 0000 0000 000000
2018-08-20 05:48:59,0.60,3.80,1.00,24.42,28.10,30.98,13.90,50.87,1011.25,2021.88,2072.86,2284.86,2511.86,600.32,590.37,7.66,0000 0000 0000 0000 000000
2018-08-20 05:54:01,0.57,3.82,1.00,24.43,28.10,31.01,13.85,50.91,1011.25,2021.78,2064.84,2280.18,2506.20,599.96,590.00,7.71,0000 0000 0000 0000 000000
2018-08-20 05:59:02,0.63,3.86,1.00,24.44,28.10,31.01,13.90,50.91,1011.25,2021.73,2056.66,2275.45,2500.38,600.15,590.17,7.76,0000 0000 0000 0000 000000
2018-08-20 06:04:03,0.64,3.89,1.00,24.44,28.10,31.00,13.79,51.02,1011.25,2021.70,2048.14,2270.40,2494.39,599.92,590.02,7.81,0000 0000 0000 0000 000000
2018-08-20 06:09:05,0.63,3.92,1.00,24.45,28.11,31.02,13.87,51.08,1011.25,2021.72,2040.14,2265.43,2488.44,600.17,590.18,7.86,0000 0000 0000 0000 000000
2018-08-20 06:14:06,0.62,3.95,1.00,24.45,28.12,30.99,13.91,51.05,1011.25,2021.51,2031.90,2260.48,2482.47,600.10,590.07,7.91,0000 0000 0000 0000 000000
2018-08-20 06:19:07,0.64,3.98,1.00,24.46,28.12,31.00,13.86,51.11,1011.25,2021.41,2023.76,2255.65,2476.59,600.09,590.04,7.96,0000 0000 0000 0000 000000
2018-08-20 06:24:08,0.59,4.01,1.00,24.47,28.12,31.04,13.90,51.25,1011.22,2021.30,2015.95,2250.92,2470.96,600.06,590.00,8.01,0000 0000 0000 0000 000000
2018-08-20 06:29:10,0.61,4.04,1.00,24.47,28.12,31.01,13.85,51.18,1011.24,2021.15,2007.94,2246.17,2465.20,600.07,590.09,8.06,0000 0000 0000 0000 000000
2018-08-20 06:34:11,0.62,4.08,1.00,24.47,28.13,31.05,13.78,51.24,1011.24,2021.06,1999.97,2241.47,2459.46,599.85,589.80,8.11,0000 0000 0000 0000 000000
2018-08-20 06:39:12,0.64,4.11,1.00,24.48,28.14,31.06,13.76,51.28,1011.22,2021.05,1991.99,2236.82,2453.70,599.91,589.85,8.16,0000 0000 0000 0000 000000
2018-08-20 06:44:14,0.65,4.14,1.00,24.49,28.15,31.04,13.81,51.25,1011.24,2021.05,1983.82,2231.97,2447.79,599.81,589.71,8.21,0000 0000 0000 0000 000000
2018-08-20 06:49:15,0.67,4.17,1.00,24.50,28.15,31.04,13.81,51.36,1011.24,2021.04,1975.54,2227.02,2441.79,599.82,589.82,8.26,0000 0000 0000 0000 000000
2018-08-20 06:54:16,0.70,4.21,1.00,24.51,28.15,31.06,13.88,51.38,1011.24,2021.01,1966.85,2221.83,2435.54,600.12,590.02,8.31,0000 0000 0000 0000 000000
2018-08-20 06:59:17,0.69,4.24,1.00,24.52,28.15,31.04,13.84,51.38,1011.23,2021.00,1958.28,2216.74,2429.47,599.99,589.90,8.36,0000 0000 0000 0000 000000
2018-08-20 07:04:19,0.75,4.28,1.00,24.51,28.16,31.07,13.77,51.36,1011.20,2021.00,1949.18,2211.37,2423.00,599.91,589.79,8.41,0000 0000 0000 0000 000000
2018-08-20 07:09:20,0.77,4.32,1.00,24.52,28.17,31.06,13.94,51.42,1011.22,2021.00,1939.76,2205.78,2416.31,600.29,590.09,8.46,0000 0000 0000 0000 000000
2018-08-20 07:14:21,0.78,4.36,1.00,24.52,28.17,31.07,13.90,51.58,1011.24,2021.00,1930.27,2200.14,2409.53,599.92,589.73,8.51,0000 0000 0000 0000 000000
2018-08-20 07:19:23,0.78,4.40,1.00,24.53,28.17,31.06,13.88,51.70,1011.24,2021.00,1920.84,2194.49,2402.71,599.83,589.67,8.56,0000 0000 0000 0000 000000
2018-08-20 07:24:24,0.78,4.44,1.00,24.55,28.17,31.09,13.83,51.73,1011.24,2021.00,1911.66,2188.96,2396.00,600.05,589.89,8.61,0000 0000 0000 0000 000000
2018-08-20 07:29:25,0.78,4.48,1.00,24.57,28.17,31.07,13.89,51.85,1011.24,2021.00,1902.39,2183.35,2389.29,600.14,589.86,8.67,0000 0000 0000 0000 000000
2018-08-20 07:34:36,0.81,4.52,1.00,24.58,28.17,31.06,13.93,51.92,1011.26,2020.99,1892.93,2177.67,2382.44,600.07,589.80,8.72,0000 0000 0000 0000 000000
2018-08-20 07:39:38,0.82,4.56,1.00,24.60,28.19,31.03,13.87,52.05,1011.25,2020.99,1883.29,2171.90,2375.47,600.19,589.89,8.77,0000 0000 0000 0000 000000
2018-08-20 07:44:39,0.83,4.60,1.00,24.61,28.20,31.06,13.90,52.02,1011.26,2020.97,1873.69,2166.07,2368.61,599.77,589.45,8.82,0000 0000 0000 0000 000000
2018-08-20 07:49:40,0.82,4.64,1.00,24.63,28.20,31.06,13.86,52.13,1011.28,2020.97,1864.19,2160.30,2361.84,599.84,589.51,8.87,0000 0000 0000 0000 000000
2018-08-20 07:54:42,0.82,4.68,1.00,24.66,28.20,31.05,13.92,52.13,1011.28,2020.96,1854.96,2154.61,2355.08,600.30,589.86,8.92,0000 0000 0000 0000 000000
2018-08-20 07:59:43,0.81,4.72,1.00,24.67,28.21,31.05,13.79,52.08,1011.29,2020.97,1845.87,2148.94,2348.37,599.86,589.36,8.97,0000 0000 0000 0000 000000
2018-08-20 08:04:45,0.81,4.76,1.00,24.65,28.22,31.10,13.83,52.26,1011.30,2020.87,1836.66,2143.29,2341.63,599.76,589.46,9.02,0000 0000 0000 0000 000000
2018-08-20 08:09:46,0.82,4.80,1.00,24.67,28.22,31.11,13.87,52.35,1011.27,2020.87,1827.48,2137.66,2334.93,600.00,589.72,9.07,0000 0000 0000 0000 000000
2018-08-20 08:14:47,0.79,4.84,1.00,24.66,28.22,31.15,13.94,52.37,1011.28,2020.63,1818.26,2131.98,2328.19,600.05,589.61,9.12,0000 0000 0000 0000 000000
2018-08-20 08:19:48,0.85,4.89,1.00,24.64,28.22,31.19,13.85,52.45,1011.26,2020.72,1809.12,2126.43,2321.60,599.71,589.32,9.17,0000 0000 0000 0000 000000
2018-08-20 08:24:50,0.79,4.93,1.00,24.61,28.23,31.23,13.91,52.52,1011.28,2020.43,1800.10,2120.85,2314.98,600.23,589.99,9.22,0000 0000 0000 0000 000000
2018-08-20 08:29:51,0.81,4.97,1.00,24.59,28.24,31.23,13.83,52.55,1011.29,2020.45,1791.31,2115.43,2308.54,599.85,589.59,9.27,0000 0000 0000 0000 000000
2018-08-20 08:34:53,0.78,5.01,1.00,24.59,28.25,31.23,13.88,52.53,1011.31,2020.59,1782.77,2110.14,2302.23,600.25,590.00,9.32,0000 0000 0000 0000 000000
2018-08-20 08:39:54,0.76,5.05,1.00,24.58,28.25,31.25,13.84,52.62,1011.34,2020.39,1774.48,2104.95,2296.06,599.96,589.80,9.37,0000 0000 0000 0000 000000
2018-08-20 08:44:55,0.76,5.09,1.00,24.57,28.25,31.23,13.97,52.67,1011.41,2020.24,1766.52,2099.80,2290.00,600.35,590.19,9.42,0000 0000 0000 0000 000000
2018-08-20 08:49:56,0.67,5.12,1.00,24.56,28.25,31.24,13.98,52.71,1011.49,2020.17,1759.32,2095.06,2284.43,600.42,590.37,9.47,0000 0000 0000 0000 000000
2018-08-20 08:54:58,0.48,5.15,1.00,24.55,28.24,31.23,13.89,52.86,1011.59,2020.23,1754.15,2091.35,2280.18,600.20,590.20,9.52,0000 0000 0000 0000 000000
2018-08-20 08:59:59,0.57,5.18,1.00,24.55,28.23,31.25,13.84,52.88,1011.52,2020.42,1749.24,2087.74,2275.96,599.98,589.95,9.57,0000 0000 0000 0000 000000
2018-08-20 09:05:00,0.49,5.20,1.00,24.56,28.23,31.20,13.90,52.86,1011.49,2020.49,1744.38,2084.20,2271.86,599.96,589.83,9.62,0000 0000 0000 0000 000000
2018-08-20 09:10:02,0.53,5.23,1.00,24.57,28.22,31.20,13.91,52.95,1011.42,2020.56,1739.52,2080.75,2267.78,600.21,590.05,9.67,0000 0000 0000 0000 000000
2018-08-20 09:15:03,0.51,5.26,1.00,24.58,28.22,31.22,13.89,52.98,1011.30,2020.60,1734.42,2077.15,2263.65,600.10,589.84,9.72,0000 0000 0000 0000 000000
2018-08-20 09:20:04,0.41,5.28,1.00,24.60,28.22,31.19,13.82,52.92,1011.27,2020.53,1730.27,2073.99,2260.04,599.69,589.36,9.77,0000 0000 0000 0000 000000
2018-08-20 09:25:05,0.42,5.30,1.00,24.60,28.23,31.16,13.83,52.98,1011.28,2020.43,1726.35,2070.91,2256.50,600.09,589.84,9.82,0000 0000 0000 0000 000000
2018-08-20 09:30:07,0.47,5.32,0.50,24.61,28.23,31.15,13.89,52.91,1011.26,2020.51,1722.14,2067.73,2252.84,600.08,589.77,9.87,0000 0000 0000 0000 000000
2018-08-20 09:35:08,0.50,5.35,0.00,24.62,28.24,31.16,13.94,52.89,1011.26,2020.78,1717.84,2064.62,2249.20,600.15,589.85,9.92,0000 0000 0000 0000 000000
2018-08-20 09:40:10,0.32,5.37,0.00,24.62,28.25,31.17,13.85,52.98,1011.27,2020.71,1714.62,2061.89,2246.13,599.86,589.50,9.97,0000 0000 0000 0000 000000
2018-08-20 09:45:11,0.13,5.38,0.00,24.63,28.25,31.19,13.86,52.93,1011.26,2020.50,1713.09,2060.16,2244.29,600.03,589.72,10.02,0000 0000 0000 0000 000000
2018-08-20 09:50:12,0.09,5.38,0.00,24.64,28.25,31.19,13.87,52.96,1011.25,2020.45,1712.99,2059.04,2243.07,600.08,589.78,10.07,0000 0000 0000 0000 000000
2018-08-20 09:55:14,0.07,5.39,0.00,24.65,28.25,31.16,13.91,52.96,1011.25,2020.40,1712.96,2058.05,2242.06,600.41,589.93,10.12,0000 0000 0000 0000 000000
2018-08-20 10:00:15,0.10,5.39,0.00,24.66,28.26,31.12,13.86,52.92,1011.26,2020.47,1712.64,2057.08,2241.11,600.31,589.86,10.17,0000 0000 0000 0000 000000
2018-08-20 10:05:16,0.06,5.40,0.00,24.69,28.27,31.09,13.91,52.85,1011.25,2020.24,1712.08,2056.15,2240.15,600.42,589.95,10.22,0000 0000 0000 0000 000000
2018-08-20 10:10:17,0.08,5.40,0.00,24.72,28.27,31.07,13.84,52.74,1011.25,2020.24,1712.00,2055.34,2239.38,600.06,589.56,10.27,0000 0000 0000 0000 000000
2018-08-20 10:15:19,0.07,5.40,0.00,24.72,28.27,30.99,13.84,52.77,1011.25,2020.13,1711.85,2054.43,2238.59,599.77,589.25,10.32,0000 0000 0000 0000 000000
2018-08-20 10:20:20,0.08,5.41,0.00,24.75,28.29,30.93,13.81,52.70,1011.25,2020.12,1711.13,2053.68,2237.78,600.01,589.45,10.37,0000 0000 0000 0000 000000
2018-08-20 10:25:22,0.07,5.41,0.00,24.77,28.30,30.90,13.80,52.78,1011.25,2020.11,1710.91,2052.81,2236.79,599.91,589.28,10.42,0000 0000 0000 0000 000000
2018-08-20 10:30:23,0.09,5.42,0.00,24.78,28.30,30.92,13.85,52.67,1011.26,2020.05,1710.14,2051.91,2235.94,600.22,589.57,10.47,0000 0000 0000 0000 000000
2018-08-20 10:35:24,0.09,5.42,0.00,24.80,28.32,30.99,13.85,52.75,1011.26,2020.06,1709.76,2051.01,2234.98,599.81,588.97,10.52,0000 0000 0000 0000 000000
2018-08-20 10:40:26,0.12,5.43,0.00,24.80,28.32,31.08,13.85,52.65,1011.26,2020.04,1708.87,2049.99,2233.85,600.23,589.33,10.57,0000 0000 0000 0000 000000
2018-08-20 10:45:27,0.17,5.43,0.00,24.80,28.33,31.14,13.84,52.58,1011.26,2020.00,1707.68,2048.79,2232.59,599.70,588.97,10.62,0000 0000 0000 0000 000000
2018-08-20 10:50:28,0.15,5.44,0.00,24.80,28.35,31.13,13.88,52.63,1011.26,2020.00,1706.33,2047.56,2231.30,599.51,588.84,10.67,0000 0000 0000 0000 000000
2018-08-20 10:55:29,0.14,5.45,0.00,24.84,28.35,30.98,13.83,52.65,1011.26,2020.00,1704.91,2046.68,2229.95,600.02,589.24,10.72,0000 0000 0000 0000 000000
2018-08-20 11:00:31,0.16,5.46,0.00,24.94,28.37,30.89,13.84,52.54,1011.27,2020.00,1703.67,2045.60,2228.67,599.60,588.69,10.77,0000 0000 0000 0000 000000
2018-08-20 11:05:32,0.14,5.46,0.00,25.07,28.37,30.87,13.82,52.52,1011.27,2020.00,1702.46,2044.57,2227.52,599.80,588.59,10.82,0000 0000 0000 0000 000000
2018-08-20 11:10:33,0.13,5.47,0.00,25.19,28.40,30.92,13.83,52.46,1011.27,2020.00,1701.28,2043.48,2226.37,599.94,588.52,10.87,0000 0000 0000 0000 000000
2018-08-20 11:15:35,0.13,5.48,0.00,25.29,28.40,30.94,13.80,52.51,1011.27,2020.00,1700.06,2042.34,2225.10,600.23,588.57,10.93,0000 0000 0000 0000 000000
2018-08-20 11:20:36,0.13,5.49,0.00,25.37,28.42,30.96,13.80,52.39,1011.26,2019.99,1698.90,2041.36,2223.99,599.61,587.85,10.98,0000 0000 0000 0000 000000
2018-08-20 11:25:37,0.15,5.50,0.00,25.42,28.44,31.00,13.75,52.36,1011.25,2019.99,1697.61,2040.37,2222.79,600.01,588.02,11.03,0000 0000 0000 0000 000000
2018-08-20 11:30:39,0.20,5.51,0.00,25.46,28.46,31.00,13.74,52.37,1011.26,2019.96,1695.75,2038.90,2221.24,600.10,588.11,11.08,0000 0000 0000 0000 000000
2018-08-20 11:35:40,0.18,5.51,0.00,25.47,28.47,31.05,13.72,52.41,1011.26,2019.86,1693.94,2037.63,2219.73,599.89,587.88,11.13,0000 0000 0000 0000 000000
2018-08-20 11:40:41,0.12,5.52,0.00,25.43,28.50,31.08,13.81,52.42,1011.27,2019.49,1692.33,2036.40,2218.32,599.85,588.01,11.18,0000 0000 0000 0000 000000
2018-08-20 11:45:42,0.13,5.53,0.00,25.33,28.51,31.12,13.75,52.44,1011.26,2019.16,1690.70,2035.20,2216.93,599.95,588.25,11.23,0000 0000 0000 0000 000000
2018-08-20 11:50:43,0.13,5.54,0.00,25.24,28.52,31.23,13.84,52.55,1011.26,2019.04,1689.40,2034.07,2215.75,599.92,588.35,11.28,0000 0000 0000 0000 000000
2018-08-20 11:55:45,0.13,5.54,0.00,25.17,28.53,31.36,13.87,52.52,1011.26,2019.01,1688.22,2033.14,2214.70,600.28,588.91,11.33,0000 0000 0000 0000 000000
2018-08-20 12:00:46,0.11,5.55,0.00,25.11,28.55,31.40,13.85,52.50,1011.25,2019.00,1687.20,2032.35,2213.86,599.90,588.57,11.38,0000 0000 0000 0000 000000
2018-08-20 12:05:48,0.06,5.55,0.00,25.06,28.55,31.47,13.89,52.42,1011.26,2019.00,1686.65,2031.93,2213.05,600.20,589.00,11.43,0000 0000 0000 0000 000000
2018-08-20 12:10:49,0.08,5.56,0.00,25.03,28.56,31.53,13.88,52.49,1011.26,2019.00,1686.02,2031.16,2212.58,599.90,588.69,11.48,0000 0000 0000 0000 000000
2018-08-20 12:15:50,0.05,5.56,0.00,25.00,28.57,31.54,13.88,52.44,1011.26,2019.00,1685.63,2030.77,2212.00,600.04,588.92,11.53,0000 0000 0000 0000 000000
2018-08-20 12:20:52,0.08,5.56,0.00,24.98,28.57,31.54,13.89,52.48,1011.25,2019.00,1685.01,2030.04,2211.27,600.26,589.24,11.58,0000 0000 0000 0000 000000
2018-08-20 12:25:53,0.06,5.57,0.00,24.97,28.57,31.54,13.89,52.52,1011.26,2018.99,1684.52,2029.66,2210.90,600.09,589.07,11.63,0000 0000 0000 0000 000000
2018-08-20 12:30:54,0.05,5.57,0.00,24.96,28.57,31.58,13.91,52.51,1011.26,2018.99,1684.01,2029.02,2210.11,600.22,589.15,11.68,0000 0000 0000 0000 000000
2018-08-20 12:35:55,0.06,5.57,0.00,24.96,28.58,31.53,13.90,52.46,1011.25,2018.98,1683.57,2028.72,2209.88,600.10,588.98,11.73,0000 0000 0000 0000 000000
2018-08-20 12:40:57,0.06,5.58,0.00,24.97,28.60,31.56,13.87,52.30,1011.25,2018.99,1683.02,2028.03,2209.09,600.03,588.88,11.78,0000 0000 0000 0000 000000
2018-08-20 12:45:58,0.03,5.58,0.00,24.97,28.60,31.51,13.86,52.46,1011.25,2018.98,1682.73,2027.89,2208.85,600.19,589.06,11.83,0000 0000 0000 0000 000000
2018-08-20 12:50:59,0.09,5.58,0.00,24.96,28.60,31.53,13.79,52.64,1011.25,2018.98,1682.05,2027.15,2208.12,599.72,588.72,11.88,0000 0000 0000 0000 000000
2018-08-20 12:56:01,0.01,5.58,0.00,24.96,28.60,31.55,13.82,52.58,1011.25,2018.98,1681.82,2026.98,2207.95,599.67,588.68,11.93,0000 0000 0000 0000 000000
2018-08-20 13:01:02,0.11,5.59,0.00,24.97,28.60,31.55,13.88,52.44,1011.25,2018.98,1681.07,2026.28,2207.20,600.04,588.92,11.98,0000 0000 0000 0000 000000